Content
SEND FEEDBACK

Daily
Averages
Monthly
Summary
United States of America

SPEARMAN, TEXAS


Home > North America > United States > Texas
Elevation: 3100 feet     Latitude: 36 11N     Longitude: 101 11W

WEATHER
 
SELECT A DAY
Number of Records: 283,553;   Date Range: 1/21/03 - 10/21/14
 
SHARE

PRINT THIS DATA

[ ← Previous Day ]
WEATHER ALMANAC - FEBRUARY 5, 2013
[ Next Day → ]
[ °C ]   °F
Weather ElementAverageHighLow
Temperature42.7 °F64.4 °F (3:35 pm)24.8 °F (7:35 am)
Dewpoint20.8 °F24.8 °F (9:15 am)17.6 °F (4:15 am)
Humidity46.6 %74 % (5:55 am)18 % (3:35 pm)
Barometer29.97 in30.03 in (10:55 am)29.90 in (1:55 am)
Wind Speed8.2 mph17.3 mph (2:35 pm)
Wind Gust21.9 mph (2:35 pm)
Weather ElementAverage
Visibility10 mi
Wind DirectionSE (131 °)

Weather ElementTotal
Precipitation---
Heating Degree Days20.4 (Base 65)
Averaged from 69 records on February 5, 2013
WEATHER CONDITIONS BREAKOUT
WIND DIRECTION BREAKOUT
WEATHER BY HOUR - FEBRUARY 5, 2013
[ °C ]   °F
Local TimeTemperatureDewpointHumidityBarometerVisibilityWind DirectionWind SpeedGust SpeedPrecipitationEventsConditions
12:35 AM32.0 °F19.4 °F60 %29.92 in10.0 miSSE (160°)8.1 mphClear
12:55 AM32.0 °F19.4 °F60 %29.92 in10.0 miSouth (170°)9.2 mphClear
1:15 AM30.2 °F19.4 °F64 %29.91 in10.0 miSouth (170°)8.1 mphClear
1:35 AM30.2 °F19.4 °F64 %29.91 in10.0 miSouth (170°)9.2 mphClear
1:55 AM30.2 °F19.4 °F64 %29.90 in10.0 miSouth (180°)9.2 mphClear
2:15 AM30.2 °F19.4 °F64 %29.91 in10.0 miSouth (180°)8.1 mphClear
2:35 AM30.2 °F19.4 °F64 %29.91 in10.0 miSouth (190°)6.9 mphClear
2:55 AM30.2 °F19.4 °F64 %29.91 in10.0 miSouth (180°)6.9 mphClear
3:15 AM32.0 °F19.4 °F60 %29.91 in10.0 miSouth (170°)5.8 mphClear
3:35 AM32.0 °F21.2 °F64 %29.91 in10.0 miSSE (150°)4.6 mphClear
3:55 AM32.0 °F21.2 °F64 %29.91 in10.0 miSSE (160°)5.8 mphClear
4:15 AM26.6 °F17.6 °F69 %29.91 in10.0 miSouth (170°)10.4 mphClear
4:35 AM28.4 °F19.4 °F69 %29.91 in10.0 miSouth (180°)8.1 mphClear
4:55 AM28.4 °F19.4 °F69 %29.90 in10.0 miSouth (190°)10.4 mphClear
5:15 AM32.0 °F21.2 °F64 %29.91 in10.0 miSouth (190°)8.1 mphClear
5:35 AM30.2 °F21.2 °F69 %29.91 in10.0 miSSW (210°)6.9 mphClear
5:55 AM26.6 °F19.4 °F74 %29.92 in10.0 miSSW (210°)8.1 mphClear
6:15 AM30.2 °F21.2 °F69 %29.93 in10.0 miSW (220°)6.9 mphClear
6:35 AM30.2 °F21.2 °F69 %29.94 in10.0 miSW (230°)5.8 mphClear
6:55 AM30.2 °F21.2 °F69 %29.94 in10.0 miSW (220°)5.8 mphClear
7:15 AM28.4 °F19.4 °F69 %29.94 in10.0 miSouth (190°)6.9 mphClear
7:35 AM24.8 °F17.6 °F74 %29.96 in10.0 miCalmClear
7:55 AM26.6 °F19.4 °F74 %29.96 in10.0 miCalmClear
8:15 AM26.6 °F17.6 °F69 %29.97 in10.0 miNW (310°)5.8 mphClear
8:35 AM28.4 °F19.4 °F69 %29.97 in10.0 miWNW (290°)3.5 mphClear
8:55 AM32.0 °F23.0 °F69 %29.97 in10.0 miCalmClear
9:15 AM37.4 °F24.8 °F60 %29.98 in7.0 miSE (130°)3.5 mphClear
9:35 AM41.0 °F23.0 °F49 %29.98 in10.0 miSSW (210°)3.5 mphClear
9:55 AM42.8 °F23.0 °F46 %30.00 in10.0 miWNW (290°)4.6 mphClear
10:15 AM44.6 °F23.0 °F43 %30.02 in10.0 miNNW (330°)6.9 mphClear
10:35 AM46.4 °F21.2 °F37 %30.01 in10.0 miCalmClear
10:55 AM50.0 °F23.0 °F35 %30.03 in10.0 miNorth (10°)3.5 mphClear
11:15 AM51.8 °F23.0 °F33 %30.03 in10.0 miNNE (20°)6.9 mphClear
11:35 AM53.6 °F23.0 °F30 %30.03 in10.0 miNorth (10°)8.1 mphClear
11:55 AM55.4 °F23.0 °F29 %30.03 in10.0 miNE (50°)5.8 mphClear
12:15 PM55.4 °F23.0 °F29 %30.03 in10.0 miENE (60°)8.1 mphClear
12:35 PM59.0 °F23.0 °F25 %30.02 in10.0 miENE (70°)8.1 mphClear
12:55 PM59.0 °F21.2 °F23 %30.02 in10.0 miENE (70°)9.2 mph16.1 mphClear
1:15 PM60.8 °F21.2 °F22 %30.01 in10.0 miENE (70°)11.5 mph17.3 mphClear
1:35 PM62.6 °F21.2 °F20 %30.00 in10.0 miENE (70°)15.0 mphClear
1:55 PM62.6 °F21.2 °F20 %29.99 in10.0 miENE (60°)12.7 mph17.3 mphClear
2:15 PM62.6 °F21.2 °F20 %29.99 in10.0 miNE (40°)12.7 mphClear
2:35 PM62.6 °F21.2 °F20 %29.98 in10.0 miNE (40°)17.3 mph21.9 mphClear
2:55 PM62.6 °F21.2 °F20 %29.98 in10.0 miNE (50°)17.3 mph21.9 mphClear
3:15 PM62.6 °F19.4 °F19 %29.98 in10.0 miENE (70°)16.1 mph21.9 mphClear
3:35 PM64.4 °F19.4 °F18 %29.98 in10.0 miEast (80°)13.8 mphClear
3:55 PM62.6 °F19.4 °F19 %29.97 in10.0 miENE (70°)12.7 mph21.9 mphClear
4:15 PM62.6 °F21.2 °F20 %29.97 in10.0 miENE (70°)12.7 mphClear
4:35 PM62.6 °F21.2 °F20 %29.97 in10.0 miEast (90°)12.7 mphClear
5:15 PM60.8 °F21.2 °F22 %29.97 in10.0 miEast (100°)10.4 mphClear
5:55 PM59.0 °F21.2 °F23 %29.98 in10.0 miESE (110°)6.9 mphClear
6:15 PM55.4 °F21.2 °F26 %29.98 in10.0 miESE (110°)8.1 mphClear
6:35 PM51.8 °F21.2 °F30 %29.98 in10.0 miEast (100°)8.1 mphClear
6:55 PM51.8 °F21.2 °F30 %29.98 in10.0 miEast (100°)8.1 mphClear
7:15 PM50.0 °F21.2 °F32 %29.99 in10.0 miEast (100°)9.2 mphClear
7:35 PM46.4 °F21.2 °F37 %29.99 in10.0 miEast (100°)9.2 mphClear
7:55 PM46.4 °F21.2 °F37 %30.00 in10.0 miEast (100°)9.2 mphClear
8:15 PM48.2 °F21.2 °F34 %30.00 in10.0 miESE (120°)11.5 mphClear
8:35 PM46.4 °F21.2 °F37 %30.01 in10.0 miESE (120°)9.2 mphClear
8:55 PM44.6 °F19.4 °F37 %30.01 in10.0 miSE (130°)10.4 mphClear
9:15 PM42.8 °F21.2 °F42 %30.01 in10.0 miESE (120°)10.4 mphClear
9:35 PM39.2 °F19.4 °F45 %30.00 in10.0 miSE (140°)10.4 mphClear
9:55 PM37.4 °F19.4 °F48 %30.00 in10.0 miSE (140°)8.1 mphClear
10:15 PM35.6 °F19.4 °F52 %30.00 in10.0 miSSE (150°)9.2 mphClear
10:35 PM35.6 °F21.2 °F56 %30.00 in10.0 miSouth (170°)8.1 mphClear
10:55 PM33.8 °F21.2 °F60 %30.00 in10.0 miSouth (170°)6.9 mphClear
11:15 PM35.6 °F21.2 °F56 %30.00 in10.0 miSouth (170°)6.9 mphClear
11:35 PM33.8 °F19.4 °F56 %29.99 in10.0 miSouth (170°)8.1 mphClear
11:55 PM33.8 °F21.2 °F60 %29.99 in10.0 miSouth (170°)5.8 mphClear
Hourly data recorded from KPYX, located miles away from Spearman, Texas







STORIES FROM OUR PARTNERS